Orbital Elements at Epoch 2459000.5 (2020-May-31.0) TDB
Reference: JPL 17 (heliocentric ecliptic J2000)
Element | Value | Uncertainty (1-sigma) | Units |
e | .1773149829434031 | 4.8335e-08 | |
a | 3.144078279327703 | 4.4611e-08 | au |
q | 2.586586092855987 | 1.66e-07 | au |
i | 15.01530995548942 | 8.0029e-06 | deg |
node | 290.9679871688654 | 2.5989e-05 | deg |
peri | 316.1460861967223 | 3.7713e-05 | deg |
M | 292.3646381948328 | 2.9014e-05 | deg |
tp | 2459383.068994159464 (2021-Jun-17.56899416) | 0.00016795 | TDB |
period | 2036.284485239274 5.58 | 4.3339e-05 1.187e-07 | d yr |
n | .1767925860112312 | 3.7627e-09 | deg/d |
Q | 3.701570465799419 | 5.2521e-08 | au |
|
| | Orbit Determination Parameters
Additional Information
|